Retour au catalogue

ONEWEB-0613

ActifCommunicationsPO
NORAD 56071·PAYLOAD·🇬🇧 United Kingdom

Lancé Mar 26, 2023 depuis Satish Dhawan Space Centre

Loading…

Prochains Passages (prochaines 24 heures)

TLE

FraisSource: CelesTrak SupGP

Époque: Sep 14, 2026, 18:46 UTC

1 56071C 23043AB  26257.78213380  .00001979  00000+0  52639-2 0  2574
2 56071  87.8984 241.3559 0002023  78.0969 318.0254 13.15547017    18

Suivez ONEWEB-0613 en temps réel avec AllMySat

Download on the App Store